GW5922 Weather Reports


time (UTC)temp
F
wind
direction
speed
knots
gust
knots
rain 1hr
in
rain 24hr
in
rain mn
in
humidity
%
barometer
mb
20260510103623 50 63 0.0 1.7 0.00 0.00 0.00 97 1011.0
20260510103119 50 3 0.0 1.7 0.00 0.00 0.00 97 1011.0
20260510102615 50 3 0.0 0.9 0.00 0.00 0.00 97 1011.0
20260510102111 50 3 0.0 0.9 0.00 0.00 0.00 97 1011.0
20260510101609 50 3 0.0 0.9 0.00 0.00 0.00 97 1011.0
20260510101107 50 3 0.9 1.7 0.00 0.00 0.00 97 1010.6
20260510100603 50 3 0.9 2.6 0.00 0.00 0.00 97 1010.6
20260510100100 50 3 0.9 2.6 0.00 0.00 0.00 97 1010.6
20260510095556 50 25 0.9 1.7 0.00 0.00 0.00 97 1010.6
20260510095055 50 25 0.9 1.7 0.00 0.00 0.00 97 1010.3
20260510094550 50 25 0.9 1.7 0.00 0.00 0.00 97 1010.3
20260510094046 50 25 0.9 1.7 0.00 0.00 0.00 97 1010.6
20260510093542 50 104 0.9 2.6 0.00 0.00 0.00 97 1010.6
20260510093039 50 105 0.9 2.6 0.00 0.00 0.00 97 1010.3
20260510092536 50 115 0.9 1.7 0.00 0.00 0.00 97 1010.3
20260510092035 50 115 0.9 1.7 0.00 0.00 0.00 97 1010.6
20260510091532 50 115 0.9 1.7 0.00 0.00 0.00 97 1010.6
20260510091028 50 93 0.9 1.7 0.00 0.00 0.00 97 1010.6
20260510090526 50 110 0.0 1.7 0.00 0.00 0.00 96 1010.3
20260510090021 50 140 0.0 2.6 0.00 0.00 0.00 96 1010.3
20260510085521 50 140 0.9 3.5 0.00 0.00 0.00 96 1010.3
20260510085017 50 135 1.7 4.3 0.00 0.00 0.00 96 1010.3
20260510084514 50 136 1.7 5.2 0.00 0.00 0.00 96 1010.3
20260510084011 50 156 3.5 5.2 0.00 0.00 0.00 96 1010.3
20260510083508 50 128 3.5 5.2 0.00 0.00 0.00 96 1010.3
20260510083004 51 132 2.6 5.2 0.00 0.00 0.00 96 1010.3
20260510082501 51 134 0.9 4.3 0.00 0.00 0.00 96 1010.6
20260510082000 51 177 0.9 2.6 0.00 0.00 0.00 97 1010.3
20260510081456 51 128 0.9 1.7 0.00 0.00 0.00 97 1010.3
20260510080952 51 201 0.9 1.7 0.00 0.00 0.00 97 1010.3
20260510080450 51 153 0.0 0.9 0.00 0.00 0.00 97 1010.6
20260510075948 51 153 0.9 0.9 0.00 0.00 0.00 97 1010.3
20260510075445 51 153 0.9 0.9 0.00 0.00 0.00 97 1010.6
20260510074942 51 279 0.0 0.9 0.00 0.00 0.00 97 1010.6
20260510074439 51 279 0.0 0.9 0.00 0.00 0.00 97 1010.6
20260510073936 51 279 0.0 1.7 0.00 0.00 0.00 97 1010.6
20260510073431 51 279 0.0 1.7 0.00 0.00 0.00 97 1010.6
20260510072928 51 283 0.0 0.9 0.00 0.00 0.00 97 1010.6
20260510072425 51 271 0.0 1.7 0.00 0.00 0.00 97 1010.6
20260510071920 51 271 0.9 2.6 0.00 0.00 0.00 97 1010.6
20260510071417 51 321 1.7 4.3 0.00 0.00 0.00 97 1010.6
20260510070916 51 316 2.6 6.1 0.00 0.00 0.00 97 1010.6
20260510070413 50 309 2.6 6.1 0.00 0.00 0.00 97 1010.6
20260510065908 50 299 1.7 6.1 0.00 0.00 0.00 96 1010.6
20260510065405 49 354 0.0 1.7 0.00 0.00 0.00 96 1010.3
20260510064901 49 1 0.0 0.0 0.00 0.00 0.00 96 1010.3
20260510064359 49 1 0.0 0.0 0.00 0.00 0.00 96 1010.3
20260510063855 49 1 0.0 0.0 0.00 0.00 0.00 96 1010.3
20260510063351 49 1 0.0 0.9 0.00 0.00 0.00 96 1010.3
20260510062848 49 1 0.0 0.9 0.00 0.00 0.00 96 1010.3
20260510062343 49 0 0.0 0.9 0.00 0.00 0.00 96 1010.3
20260510061839 50 354 0.0 0.0 0.00 0.00 0.00 96 1010.3
20260510061336 50 354 0.0 0.9 0.00 0.00 0.00 96 1010.3
20260510060832 50 354 0.0 0.9 0.00 0.00 0.00 96 1010.3
20260510060330 49 354 0.0 0.0 0.00 0.00 0.00 96 1010.6
20260510055826 49 354 0.9 2.6 0.00 0.00 0.00 96 1010.6
20260510055325 50 354 1.7 2.6 0.00 0.00 0.00 96 1010.6
20260510054824 49 352 0.9 2.6 0.00 0.00 0.00 95 1010.6
20260510054320 49 1 1.7 4.3 0.00 0.00 0.00 95 1010.6
20260510053815 50 338 2.6 4.3 0.00 0.00 0.00 95 1010.6
20260510053311 50 347 1.7 2.6 0.00 0.00 0.00 95 1010.6
20260510052808 50 353 1.7 2.6 0.00 0.00 0.00 95 1010.6
20260510052306 50 359 1.7 2.6 0.00 0.00 0.00 95 1010.3
20260510051800 51 7 0.9 1.7 0.00 0.00 0.00 95 1010.3
20260510051256 51 257 0.0 0.9 0.00 0.00 0.00 95 1010.3
20260510050753 51 256 0.0 0.0 0.00 0.00 0.00 95 1010.3
20260510050245 51 256 0.0 0.9 0.00 0.00 0.00 95 1010.3
20260510045742 51 256 0.0 0.9 0.00 0.00 0.00 95 1010.3
20260510045238 51 256 0.0 0.9 0.00 0.00 0.00 95 1010.3
20260510044735 51 256 0.0 0.9 0.00 0.00 0.00 95 1010.3
20260510044233 51 256 0.0 0.0 0.00 0.00 0.00 95 1010.3
20260510043728 51 256 0.0 0.0 0.00 0.00 0.00 95 1010.3
20260510043226 51 256 0.0 0.0 0.00 0.00 0.00 95 1010.3
20260510042722 51 256 0.0 0.0 0.00 0.00 0.00 95 1010.3
20260510042218 51 256 0.0 0.0 0.00 0.00 0.00 95 1010.3
20260510041715 51 256 0.0 0.9 0.00 0.00 0.00 95 1010.6
20260510041213 51 256 0.0 0.9 0.00 0.00 0.00 95 1010.3
20260510040709 51 256 0.0 0.0 0.00 0.00 0.00 95 1010.3
20260510040206 51 256 0.0 0.0 0.00 0.00 0.00 95 1010.6
20260510035701 51 256 0.0 0.0 0.00 0.23 0.23 95 1010.6
20260510035157 51 256 0.0 0.0 0.00 0.23 0.23 95 1010.3
20260510034653 52 256 0.0 0.0 0.00 0.23 0.23 95 1010.3
20260510034150 52 256 0.0 0.9 0.00 0.23 0.23 95 1010.3
20260510033646 52 256 0.0 0.9 0.00 0.23 0.23 95 1010.3
20260510033145 52 256 0.0 0.9 0.00 0.23 0.23 95 1010.3
20260510032641 52 256 0.0 0.9 0.00 0.23 0.23 95 1010.3
20260510032136 52 252 0.0 0.9 0.00 0.23 0.23 95 1010.3
20260510031631 52 251 0.0 0.0 0.00 0.23 0.23 95 1010.3
20260510031129 52 252 0.0 0.9 0.00 0.23 0.23 95 1010.0
20260510030622 52 252 0.0 0.9 0.00 0.23 0.23 95 1010.3
20260510030121 52 251 0.0 1.7 0.00 0.23 0.23 94 1010.3
20260510025617 52 252 0.0 1.7 0.00 0.23 0.23 94 1010.3
20260510025115 52 264 0.0 0.9 0.00 0.23 0.23 95 1010.3
20260510024611 52 175 0.0 2.6 0.00 0.23 0.23 94 1010.3
20260510024108 52 160 0.0 2.6 0.00 0.23 0.23 94 1010.3
20260510023604 51 252 0.0 2.6 0.00 0.23 0.23 95 1010.0
20260510023102 51 145 0.0 0.9 0.00 0.23 0.23 94 1010.3
20260510022601 51 145 0.0 0.9 0.00 0.23 0.23 94 1010.0
20260510022056 51 145 0.0 0.9 0.00 0.23 0.23 94 1010.0
20260510021553 51 145 0.0 0.9 0.00 0.23 0.23 94 1010.3
20260510021050 51 145 0.0 0.9 0.00 0.23 0.23 94 1010.0
20260510020550 51 145 0.0 0.9 0.00 0.23 0.23 94 1010.0
20260510020045 51 148 0.0 0.9 0.00 0.23 0.23 94 1010.0
20260510015536 51 148 0.0 1.7 0.00 0.23 0.23 94 1010.0
20260510015032 51 150 0.0 1.7 0.00 0.23 0.23 94 1010.0
20260510014528 51 172 0.0 0.0 0.00 0.23 0.23 93 1010.0
20260510014025 51 172 0.0 0.0 0.00 0.23 0.23 93 1010.0
20260510013521 51 172 0.0 0.0 0.00 0.23 0.23 93 1010.0
20260510013016 51 174 0.0 0.0 0.00 0.23 0.23 93 1010.0
20260510012510 51 174 0.0 0.0 0.00 0.23 0.23 92 1010.0
20260510012007 51 174 0.0 0.0 0.00 0.23 0.23 92 1010.0
20260510011502 51 174 0.0 0.0 0.00 0.23 0.23 92 1010.0
20260510010957 51 174 0.0 0.0 0.00 0.23 0.23 92 1010.0
20260510010455 51 174 0.0 0.9 0.00 0.23 0.23 92 1010.0
20260510005951 52 174 0.9 0.9 0.00 0.23 0.23 91 1009.6
20260510005447 52 174 0.9 0.9 0.00 0.23 0.23 91 1009.6
20260510004945 52 174 0.0 0.9 0.00 0.23 0.23 91 1009.6
20260510004442 52 174 0.0 0.0 0.00 0.23 0.23 90 1009.6
20260510003940 52 174 0.0 0.0 0.00 0.23 0.23 89 1009.6
20260510003437 53 174 0.0 0.0 0.00 0.23 0.23 89 1009.6
20260510002936 53 174 0.0 0.0 0.00 0.23 0.23 90 1009.3
20260510002433 53 174 0.0 0.0 0.00 0.23 0.23 89 1009.3
20260510001929 54 174 0.0 0.0 0.00 0.23 0.23 89 1009.3
20260510001427 54 174 0.0 0.0 0.00 0.23 0.23 88 1009.3
20260510000924 54 174 0.0 0.0 0.00 0.23 0.23 87 1009.3
20260510000421 55 174 0.0 0.0 0.00 0.23 0.23 86 1008.9
20260509235917 55 174 0.0 0.0 0.00 0.23 0.23 85 1009.3
20260509235415 56 174 0.0 0.0 0.00 0.23 0.23 84 1009.3
20260509234910 57 174 0.0 0.9 0.00 0.23 0.23 83 1009.3
20260509234408 57 174 0.0 0.9 0.00 0.23 0.23 83 1009.3
20260509233905 58 174 0.0 1.7 0.00 0.23 0.23 82 1008.9
20260509233402 59 176 0.0 1.7 0.00 0.23 0.23 81 1009.3
20260509232857 59 166 0.0 0.9 0.00 0.23 0.23 82 1008.9
20260509232356 59 164 0.9 0.9 0.00 0.23 0.23 82 1008.9
20260509231851 59 134 0.9 0.9 0.00 0.23 0.23 82 1008.9
20260509231349 60 133 0.0 1.7 0.00 0.23 0.23 82 1008.9
20260509230847 59 229 0.9 2.6 0.00 0.23 0.23 84 1008.9
20260509230343 59 263 0.9 2.6 0.00 0.23 0.23 84 1008.9
20260509225838 59 252 0.0 2.6 0.00 0.23 0.23 82 1008.9
20260509225336 59 252 0.0 1.7 0.00 0.23 0.23 84 1008.9
20260509224832 59 252 0.9 2.6 0.00 0.23 0.23 85 1008.9
20260509224328 59 252 0.9 4.3 0.00 0.23 0.23 85 1008.9
20260509223825 58 231 0.9 4.3 0.00 0.23 0.23 87 1008.9
20260509223322 58 260 0.9 3.5 0.00 0.23 0.23 88 1008.9
20260509222819 57 267 0.9 4.3 0.00 0.23 0.23 88 1008.9
20260509222314 57 205 0.9 4.3 0.00 0.23 0.23 87 1008.9
20260509221809 57 153 0.9 4.3 0.00 0.23 0.23 87 1008.9
20260509221307 57 250 1.7 6.1 0.00 0.23 0.23 88 1008.9
20260509220802 57 257 1.7 6.1 0.00 0.23 0.23 88 1008.9
20260509220259 57 245 1.7 4.3 0.00 0.23 0.23 89 1008.9
20260509215754 56 261 2.6 4.3 0.00 0.23 0.23 88 1008.9
20260509215251 56 269 2.6 4.3 0.00 0.23 0.23 88 1008.9
20260509214748 56 259 2.6 5.2 0.00 0.23 0.23 88 1008.9
20260509214245 56 244 3.5 6.1 0.00 0.23 0.23 86 1008.9
20260509213742 56 252 2.6 6.1 0.00 0.23 0.23 86 1008.9
20260509213238 57 284 1.7 4.3 0.00 0.23 0.23 86 1008.9
20260509212735 57 258 1.7 4.3 0.00 0.23 0.23 87 1008.9
20260509212233 57 263 1.7 4.3 0.00 0.23 0.23 90 1008.9
20260509211728 56 286 1.7 3.5 0.00 0.23 0.23 90 1009.3
20260509211225 56 250 0.9 3.5 0.00 0.23 0.23 90 1008.9
20260509210721 55 226 0.9 3.5 0.00 0.23 0.23 90 1009.3
20260509210219 55 264 0.9 3.5 0.00 0.23 0.23 90 1009.3
20260509205719 55 252 0.9 2.6 0.00 0.23 0.23 90 1009.6
20260509205218 54 250 1.7 4.3 0.00 0.23 0.23 90 1009.3
20260509204715 54 257 2.6 5.2 0.00 0.23 0.23 90 1009.3
20260509204211 54 279 2.6 5.2 0.00 0.23 0.23 90 1009.6
20260509203707 54 259 2.6 5.2 0.00 0.23 0.23 90 1009.6
20260509203206 54 288 2.6 4.3 0.00 0.23 0.23 90 1009.6
20260509202701 54 288 3.5 5.2 0.00 0.23 0.23 90 1009.6
20260509202156 54 247 2.6 5.2 0.01 0.23 0.23 90 1009.6
20260509201651 54 278 1.7 3.5 0.01 0.23 0.23 90 1009.6
20260509201149 54 287 0.9 3.5 0.01 0.23 0.23 90 1009.6
20260509200645 54 281 0.9 3.5 0.02 0.23 0.23 91 1009.6
20260509200140 54 251 0.9 3.5 0.02 0.23 0.23 90 1009.6
20260509195636 55 164 0.0 1.7 0.03 0.23 0.23 92 1009.6
20260509195131 54 164 0.9 1.7 0.03 0.23 0.23 92 1009.6
20260509194630 54 162 0.9 2.6 0.03 0.23 0.23 92 1010.0
20260509194128 54 155 0.9 2.6 0.04 0.23 0.23 92 1009.6
20260509193623 54 191 0.0 1.7 0.04 0.23 0.23 92 1010.0
20260509193119 54 210 0.0 0.9 0.05 0.23 0.23 92 1010.0
20260509192616 54 211 0.0 0.9 0.06 0.23 0.23 92 1010.0
20260509192111 53 112 0.9 2.6 0.05 0.22 0.22 92 1010.0
20260509191606 53 210 1.7 5.2 0.06 0.22 0.22 92 1010.3
20260509191103 53 264 1.7 5.2 0.06 0.22 0.22 92 1010.3
20260509190559 53 277 1.7 3.5 0.05 0.21 0.21 92 1010.3
20260509190057 53 254 2.6 6.1 0.06 0.21 0.21 92 1010.6
20260509185554 53 262 2.6 6.1 0.05 0.20 0.20 91 1010.6
20260509185050 53 248 1.7 3.5 0.05 0.20 0.20 91 1010.6
20260509184549 53 255 1.7 3.5 0.05 0.19 0.19 91 1010.6
20260509184045 53 250 1.7 5.2 0.05 0.19 0.19 91 1010.6
20260509183540 53 262 2.6 5.2 0.05 0.19 0.19 91 1010.6
20260509183036 53 259 3.5 7.8 0.05 0.18 0.18 90 1010.6
20260509182533 53 250 3.5 7.8 0.05 0.17 0.17 90 1010.6
20260509182030 53 279 3.5 7.0 0.06 0.17 0.17 90 1010.6
20260509181528 53 250 2.6 5.2 0.06 0.16 0.16 91 1010.6
20260509181025 53 285 2.6 4.3 0.08 0.16 0.16 91 1010.6
20260509180520 53 274 2.6 6.1 0.09 0.16 0.16 90 1010.6
20260509180019 53 319 1.7 6.1 0.09 0.15 0.15 91 1010.6
20260509175519 53 299 1.7 3.5 0.10 0.15 0.15 91 1010.6
20260509175016 53 278 1.7 3.5 0.10 0.15 0.15 90 1010.6
20260509174513 53 315 1.7 2.6 0.10 0.14 0.14 90 1010.6
20260509174008 54 311 1.7 3.5 0.10 0.14 0.14 90 1010.6
20260509173503 54 288 1.7 3.5 0.11 0.14 0.14 90 1010.6
20260509172959 54 283 1.7 3.5 0.10 0.13 0.13 90 1010.6
20260509172457 54 289 1.7 3.5 0.10 0.13 0.13 89 1010.6
20260509171952 54 266 2.6 6.1 0.10 0.12 0.12 88 1010.6
20260509171448 54 274 4.3 7.0 0.09 0.10 0.10 88 1010.6
20260509170945 54 273 5.2 8.7 0.06 0.08 0.08 87 1010.6
20260509170440 55 269 5.2 8.7 0.05 0.06 0.06 87 1010.6
20260509165937 55 275 4.3 7.8 0.05 0.06 0.06 88 1010.6
20260509165436 55 255 3.5 7.0 0.04 0.05 0.05 88 1010.6
20260509164932 56 266 4.3 7.8 0.04 0.05 0.05 87 1010.6
20260509164428 56 257 4.3 7.8 0.03 0.04 0.04 86 1010.6
20260509163924 56 259 4.3 8.7 0.03 0.04 0.04 86 1010.6
20260509163422 56 267 4.3 9.6 0.02 0.03 0.03 85 1010.6
20260509162920 56 268 3.5 9.6 0.01 0.03 0.03 85 1011.0
20260509162420 57 258 2.6 7.0 0.01 0.02 0.02 84 1011.0
20260509161915 57 231 2.6 7.0 0.00 0.01 0.01 84 1010.6
20260509161411 57 257 3.5 7.0 0.00 0.01 0.01 85 1010.6
20260509160907 57 238 2.6 7.0 0.00 0.01 0.01 83 1010.6
20260509160408 57 243 1.7 5.2 0.00 0.01 0.01 83 1011.0
20260509155903 57 255 1.7 5.2 0.00 0.01 0.01 83 1011.0
20260509155400 56 247 1.7 6.1 0.00 0.01 0.01 83 1011.0
20260509154857 56 248 2.6 6.1 0.00 0.01 0.01 83 1011.0
20260509154353 56 268 1.7 6.1 0.00 0.01 0.01 84 1011.0
20260509153850 56 257 0.9 4.3 0.00 0.01 0.01 84 1011.0
20260509153347 56 240 0.9 5.2 0.01 0.01 0.01 84 1011.0
20260509152844 55 242 2.6 6.1 0.01 0.01 0.01 84 1011.3
20260509152339 55 259 2.6 6.1 0.01 0.01 0.01 84 1011.3
20260509151837 55 246 0.9 5.2 0.01 0.01 0.01 85 1011.0
20260509151333 55 246 0.9 4.3 0.01 0.01 0.01 85 1011.0
20260509150832 55 267 0.9 3.5 0.01 0.01 0.01 84 1011.0
20260509150329 55 176 1.7 4.3 0.01 0.01 0.01 83 1011.0
20260509145826 55 131 0.9 4.3 0.01 0.01 0.01 83 1010.6
20260509145321 56 128 0.9 1.7 0.01 0.01 0.01 84 1010.6
20260509144818 56 208 0.0 1.7 0.01 0.01 0.01 84 1011.0
20260509144315 56 123 0.0 1.7 0.01 0.01 0.01 85 1011.0
20260509143812 55 124 0.9 1.7 0.01 0.01 0.01 84 1011.0
20260509143309 55 166 0.0 1.7 0.00 0.00 0.00 84 1011.0
20260509142805 55 155 0.0 1.7 0.00 0.00 0.00 84 1011.0
20260509142301 55 169 0.9 1.7 0.00 0.00 0.00 83 1011.0
20260509141757 55 127 0.9 1.7 0.00 0.00 0.00 83 1011.0
20260509141254 55 157 0.0 1.7 0.00 0.00 0.00 83 1011.0
20260509140751 55 131 0.0 1.7 0.00 0.00 0.00 83 1011.0
20260509140248 55 136 0.0 1.7 0.00 0.00 0.00 83 1010.6
20260509135745 55 136 0.0 1.7 0.00 0.00 0.00 83 1010.6
20260509135243 55 151 0.0 1.7 0.00 0.00 0.00 83 1010.6
20260509134740 54 151 0.9 3.5 0.00 0.00 0.00 83 1010.6
20260509134237 54 123 0.9 3.5 0.00 0.00 0.00 82 1010.6
20260509133734 54 179 0.9 3.5 0.00 0.00 0.00 82 1010.6
20260509133231 54 164 1.7 5.2 0.00 0.00 0.00 82 1010.6
20260509132730 54 137 2.6 5.2 0.00 0.00 0.00 82 1010.6
20260509132228 54 126 2.6 5.2 0.00 0.00 0.00 82 1010.6
20260509131724 54 160 1.7 5.2 0.00 0.00 0.00 82 1010.6
20260509131221 54 126 0.9 3.5 0.00 0.00 0.00 81 1010.6
20260509130717 54 139 0.9 2.6 0.00 0.00 0.00 81 1010.6
20260509130213 54 139 1.7 3.5 0.00 0.00 0.00 81 1010.6
20260509125710 54 125 1.7 3.5 0.00 0.00 0.00 81 1010.6
20260509125207 54 115 0.9 3.5 0.00 0.00 0.00 80 1010.6
20260509124703 53 132 0.9 2.6 0.00 0.00 0.00 80 1010.6
20260509124200 53 137 0.9 2.6 0.00 0.00 0.00 81 1010.6
20260509123658 53 98 0.9 2.6 0.00 0.00 0.00 80 1010.6
20260509123155 53 129 0.9 2.6 0.00 0.00 0.00 80 1010.6
20260509122650 53 148 0.9 2.6 0.00 0.00 0.00 80 1011.0
20260509122147 53 134 0.9 2.6 0.00 0.00 0.00 80 1011.0
20260509121644 53 193 0.9 1.7 0.00 0.00 0.00 80 1011.0
20260509121142 53 264 0.9 2.6 0.00 0.00 0.00 80 1011.0
20260509120640 53 118 1.7 3.5 0.00 0.00 0.00 80 1011.0
20260509120137 52 163 1.7 3.5 0.00 0.00 0.00 80 1011.0
20260509115634 52 119 0.9 2.6 0.00 0.00 0.00 80 1011.0
20260509115132 52 96 0.9 2.6 0.00 0.00 0.00 80 1010.6
20260509114630 52 130 0.9 2.6 0.00 0.00 0.00 80 1011.0
20260509114129 51 79 1.7 2.6 0.00 0.00 0.00 80 1011.0
20260509113627 51 82 1.7 3.5 0.00 0.00 0.00 81 1010.6
20260509113124 51 77 1.7 3.5 0.00 0.00 0.00 80 1010.6
20260509112620 51 105 1.7 3.5 0.00 0.00 0.00 81 1010.6
20260509112117 51 87 1.7 3.5 0.00 0.00 0.00 80 1010.6
20260509111614 51 91 0.9 2.6 0.00 0.00 0.00 80 1010.6
20260509111111 51 104 0.9 2.6 0.00 0.00 0.00 80 1010.6
20260509110608 51 95 0.0 1.7 0.00 0.00 0.00 81 1010.6
20260509110105 51 273 0.9 2.6 0.00 0.00 0.00 81 1010.6
20260509105604 51 65 0.9 2.6 0.00 0.00 0.00 81 1010.3
20260509105101 51 67 1.7 4.3 0.00 0.00 0.00 81 1010.3
20260509104557 50 67 1.7 4.3 0.00 0.00 0.00 80 1010.6
20260509104054 50 98 2.6 4.3 0.00 0.00 0.00 80 1010.6